Location: Elaina
(34.1445°N, 106.7742°W)
Time: 16:47:31
(UTC+00:00)

Cosmos 858 Rocket - Pass Details

Date: 11 December 2025
Orbit: 752 x 770 km, 74.1° (Epoch: 16 January)

Event Time Altitude Azimuth Distance (km) Brightness Sun altitude
Exits shadow 12:32:42 16° 339° (NNW) 1,909 6.2 -18.2°
Maximum altitude 12:36:53 79° 255° (WSW) 775 4.4 -17.3°
Drops below altitude 10° 12:42:03 10° 169° (S) 2,280 7.3 -16.3°
Sets 12:44:25 0° 168° (SSE) 3,205 8.1 -15.8°
